Temp
12 12 10 10 9 9 9 9 10 10 9 9 8 9 10 10 10 11 11 11 11 12 12 12 11 11 11 11 10 10 10 9 9 9 9 9 9 9 8 8 8 8 7
12 12 12 10 10 11 11 11 11 11 11 11 11 11 11 10 11 11 11 11 11 11 12 12 11 11 11 10 10 10 9 9 9 9 9 9 8 8 8 8 7 7 7
12 12 12 12 11 11 12 12 11 11 11 11 11 10 10 11 11 11 11 11 11 12 12 11 11 11 10 10 10 10 10 9 9 9 9 8 8 8 8 8 7 7 6
13 13 13 13 12 12 12 12 12 11 12 11 11 11 11 11 11 12 12 12 12 11 11 11 11 11 10 10 10 9 10 9 9 9 8 8 8 8 7 7 7 7 6
15 13 13 14 13 13 13 12 11 11 12 12 12 12 12 12 12 12 12 11 11 12 11 11 11 10 10 9 9 9 9 9 8 8 8 8 7 7 7 6 7 6 6
16 15 14 14 13 13 13 13 11 12 12 13 13 13 12 12 12 12 12 12 12 12 12 11 11 10 9 10 10 10 8 8 7 7 7 7 7 7 6 5 5 5 5
16 15 14 13 13 14 14 14 13 12 13 14 14 13 13 13 13 13 13 13 13 13 12 12 12 11 10 9 9 8 7 7 6 6 6 5 6 6 5 5 4 4 4
17 17 16 15 15 15 15 14 14 14 14 14 14 14 14 13 13 13 13 13 13 13 14 13 12 11 10 9 9 8 7 6 6 6 5 5 4 4 4 4 4 3 3
18 17 17 16 16 16 16 15 14 14 14 14 14 14 14 14 14 13 13 13 13 13 13 12 10 9 9 9 9 8 7 7 6 5 5 4 3 4 3 3 2 2 2
20 19 18 18 17 18 18 16 16 16 16 15 14 14 14 14 14 13 13 13 13 13 13 11 10 9 9 8 8 7 7 6 6 5 4 3 4 3 3 2 1 2 2
22 22 21 19 19 19 18 17 17 16 15 15 15 14 14 14 14 13 12 12 13 13 12 9 9 9 8 8 8 7 6 6 5 4 4 4 3 2 2 1 1 1 1
22 22 22 20 19 18 18 18 17 16 15 15 15 15 15 14 13 12 12 13 12 10 10 9 9 8 8 8 7 6 6 5 4 4 4 3 2 2 1 1 1 1 1
22 21 22 21 19 19 19 17 17 16 17 15 15 15 15 14 13 13 12 13 12 10 9 8 8 7 7 6 6 5 4 4 4 3 2 2 1 1 1 1 1 1 0
22 21 21 21 21 18 17 17 16 16 15 15 15 15 15 15 14 13 12 11 11 9 9 8 7 7 6 5 5 4 4 3 3 2 1 1 1 0 0 1 0 0 0
22 21 21 20 19 19 19 17 17 16 17 17 16 15 15 14 13 11 11 9 9 8 8 7 6 5 5 4 4 3 2 2 1 0 0 0 0 0 0 -0 -1 -1 -1
20 21 20 19 19 19 19 18 17 16 14 14 14 13 11 10 10 9 9 9 8 7 6 6 5 4 4 3 3 2 1 1 -0 -0 -0 -0 -0 -0 -0 -0 -1 -1 -1
21 21 19 19 18 18 17 17 16 15 14 12 10 10 10 10 9 8 8 7 6 5 5 4 4 3 2 2 1 1 0 -0 -0 -0 -0 0 -0 -1 -1 -1 -1 -2 -2
20 18 18 17 17 16 15 14 13 12 10 10 10 9 8 8 8 7 6 6 5 5 5 3 2 1 1 1 0 -0 -0 -0 -0 -1 -1 -1 -2 -2 -2 -2 -2 -2 -2
18 17 16 16 15 14 12 11 10 9 9 9 8 8 8 8 7 6 6 5 5 3 2 1 1 0 0 0 0 -0 -1 -1 -1 -1 -1 -2 -2 -3 -3 -3 -3 -3 -3
17 16 15 14 13 12 11 10 9 8 8 7 7 6 6 5 5 5 4 3 2 2 1 1 0 -0 -0 -0 -0 -1 -1 -1 -1 -2 -2 -3 -3 -4 -4 -5 -5 -5 -5
15 14 13 12 11 10 9 8 7 6 6 5 5 4 4 4 4 3 3 2 1 1 1 1 0 -0 -1 -1 -1 -1 -2 -2 -2 -2 -3 -4 -4 -5 -5 -6 -7 -8 -8
13 12 12 10 9 8 7 6 5 4 3 3 3 3 3 2 2 2 1 1 1 1 1 0 -1 -2 -2 -2 -2 -2 -3 -3 -3 -4 -4 -5 -5 -6 -6 -7 -8 -8 -9
12 11 10 9 8 7 6 6 5 4 3 2 2 2 1 1 1 1 1 0 0 -0 -0 -1 -2 -3 -3 -3 -4 -4 -4 -5 -5 -5 -6 -6 -7 -7 -7 -8 -9 -9 -10
10 9 9 8 7 6 6 5 4 3 2 1 1 1 1 1 0 -0 -0 -1 -1 -1 -2 -2 -3 -4 -4 -4 -5 -5 -5 -6 -6 -6 -7 -7 -8 -9 -10 -9 -10 -10 -11
10 9 8 7 6 6 5 3 2 2 1 1 1 0 -0 -1 -1 -1 -2 -2 -2 -3 -3 -3 -4 -5 -5 -5 -5 -6 -6 -7 -7 -8 -8 -9 -10 -11 -11 -11 -12 -12 -12
8 7 6 6 4 3 2 2 1 1 1 -0 -1 -2 -2 -2 -2 -2 -2 -2 -3 -4 -5 -5 -5 -5 -6 -6 -7 -7 -8 -8 -9 -9 -10 -11 -12 -13 -13 -13 -13 -14 -14
Height
1489 1491 1492 1494 1495 1498 1499 1502 1504 1506 1510 1514 1520 1525 1529 1534 1538 1541 1546 1551 1554 1555 1558 1560 1563 1565 1565 1566 1568 1569 1570 1571 1572 1574 1574 1574 1575 1574 1574 1574 1574 1573 1571
1486 1488 1491 1493 1495 1496 1499 1501 1505 1508 1511 1515 1520 1525 1529 1532 1536 1540 1544 1547 1550 1552 1554 1556 1559 1560 1561 1562 1563 1565 1564 1567 1566 1569 1571 1571 1571 1569 1569 1570 1569 1569 1569
1480 1484 1485 1490 1493 1495 1497 1500 1504 1508 1512 1517 1520 1524 1528 1530 1534 1537 1539 1542 1545 1547 1550 1554 1554 1555 1556 1557 1558 1559 1560 1560 1562 1564 1566 1566 1564 1564 1565 1565 1564 1565 1565
1474 1478 1483 1487 1489 1492 1496 1500 1502 1505 1508 1513 1516 1518 1521 1524 1528 1531 1534 1537 1541 1543 1545 1547 1548 1548 1550 1551 1552 1554 1554 1556 1557 1559 1558 1560 1560 1560 1561 1560 1559 1560 1561
1466 1471 1475 1480 1486 1490 1493 1496 1498 1502 1505 1509 1511 1514 1517 1521 1525 1527 1530 1533 1535 1537 1539 1540 1541 1543 1544 1547 1548 1551 1552 1549 1549 1550 1549 1550 1555 1555 1555 1554 1555 1557 1557
1461 1466 1470 1476 1480 1485 1489 1492 1493 1495 1500 1504 1506 1509 1513 1517 1521 1523 1525 1527 1530 1532 1532 1533 1535 1537 1538 1538 1539 1539 1544 1543 1542 1547 1547 1547 1548 1548 1548 1549 1550 1549 1551
1455 1461 1465 1468 1472 1477 1481 1485 1487 1488 1492 1497 1501 1502 1505 1509 1513 1516 1518 1520 1523 1524 1525 1527 1530 1532 1534 1535 1537 1537 1537 1535 1538 1535 1541 1543 1547 1548 1546 1544 1544 1544 1544
1450 1453 1456 1459 1463 1467 1473 1477 1482 1486 1492 1495 1498 1501 1501 1502 1503 1506 1508 1511 1514 1517 1520 1523 1526 1527 1528 1530 1530 1530 1530 1529 1530 1533 1535 1538 1543 1542 1541 1540 1538 1537 1537
1443 1447 1450 1453 1456 1459 1462 1467 1474 1480 1486 1489 1492 1492 1494 1496 1498 1500 1500 1504 1508 1512 1514 1517 1519 1521 1523 1524 1524 1525 1525 1528 1529 1531 1532 1533 1537 1538 1537 1535 1534 1534 1532
1443 1444 1447 1447 1448 1450 1454 1461 1466 1469 1472 1480 1483 1486 1488 1490 1493 1496 1495 1496 1501 1502 1505 1509 1512 1515 1517 1517 1519 1520 1522 1523 1525 1526 1528 1531 1531 1530 1531 1530 1530 1530 1528
1438 1439 1442 1443 1442 1445 1449 1454 1461 1465 1469 1470 1476 1479 1479 1483 1488 1489 1489 1491 1495 1495 1498 1501 1506 1508 1510 1512 1514 1516 1517 1519 1521 1523 1525 1526 1525 1524 1525 1526 1526 1525 1525
1434 1436 1438 1439 1441 1445 1450 1451 1453 1460 1467 1468 1472 1474 1474 1477 1483 1483 1475 1485 1491 1491 1494 1497 1500 1502 1505 1507 1509 1510 1513 1515 1517 1519 1519 1520 1520 1520 1521 1521 1521 1521 1521
1431 1432 1434 1437 1441 1443 1447 1448 1450 1454 1456 1460 1465 1470 1469 1470 1477 1479 1477 1480 1481 1485 1490 1492 1495 1497 1500 1502 1505 1508 1509 1512 1513 1514 1514 1515 1516 1516 1516 1516 1516 1515 1514
1428 1430 1431 1434 1437 1438 1443 1447 1449 1452 1454 1459 1461 1463 1463 1466 1470 1470 1471 1474 1476 1479 1482 1486 1489 1492 1496 1498 1502 1504 1505 1507 1508 1509 1510 1511 1512 1512 1512 1512 1511 1509 1507
1426 1428 1428 1429 1431 1435 1437 1441 1443 1445 1448 1451 1451 1454 1457 1459 1462 1465 1467 1470 1474 1477 1479 1482 1485 1488 1492 1495 1498 1500 1501 1502 1504 1506 1507 1508 1508 1507 1506 1505 1503 1502 1499
1423 1426 1424 1426 1429 1432 1434 1435 1439 1442 1444 1445 1447 1449 1452 1456 1459 1463 1465 1469 1471 1474 1477 1480 1483 1486 1489 1492 1495 1496 1497 1498 1500 1501 1502 1502 1502 1500 1498 1497 1495 1492 1489
1419 1420 1423 1427 1428 1430 1431 1433 1435 1437 1440 1441 1445 1449 1452 1455 1457 1460 1462 1466 1469 1472 1476 1479 1482 1485 1487 1489 1491 1493 1495 1496 1496 1496 1495 1495 1494 1492 1489 1487 1486 1485 1483
1416 1417 1420 1423 1425 1427 1429 1431 1433 1435 1438 1441 1444 1447 1450 1453 1455 1458 1461 1464 1467 1470 1473 1476 1478 1481 1484 1486 1487 1488 1490 1491 1491 1491 1490 1489 1487 1485 1481 1477 1474 1473 1471
1414 1415 1418 1421 1423 1425 1427 1429 1431 1433 1435 1438 1440 1443 1447 1450 1453 1456 1459 1463 1466 1469 1472 1475 1475 1477 1480 1482 1483 1485 1485 1485 1486 1485 1483 1481 1478 1476 1474 1469 1464 1460 1459
1412 1413 1415 1418 1421 1423 1426 1427 1429 1431 1434 1437 1440 1443 1446 1449 1452 1456 1459 1462 1466 1468 1469 1470 1473 1475 1477 1479 1479 1480 1480 1479 1479 1477 1476 1474 1471 1469 1467 1461 1457 1451 1449
1411 1413 1414 1416 1419 1421 1423 1424 1426 1430 1434 1436 1439 1442 1445 1449 1452 1455 1458 1460 1463 1466 1467 1469 1470 1472 1473 1474 1475 1474 1473 1473 1472 1470 1469 1468 1463 1462 1459 1455 1453 1448 1441
1407 1410 1413 1415 1417 1421 1424 1426 1428 1432 1434 1437 1440 1444 1447 1450 1452 1454 1456 1458 1460 1463 1465 1467 1466 1468 1468 1469 1468 1468 1467 1465 1464 1463 1462 1460 1457 1455 1452 1449 1445 1442 1437
1406 1410 1413 1416 1420 1422 1425 1429 1432 1434 1437 1441 1444 1446 1448 1451 1453 1455 1457 1459 1460 1462 1463 1463 1463 1463 1462 1462 1462 1462 1461 1460 1459 1458 1455 1453 1451 1448 1445 1442 1439 1435 1431
1410 1413 1416 1419 1422 1425 1427 1430 1432 1435 1438 1442 1445 1448 1450 1452 1454 1456 1458 1459 1460 1461 1462 1462 1461 1460 1459 1458 1458 1457 1457 1455 1454 1452 1450 1448 1445 1441 1439 1435 1432 1429 1425
1410 1414 1418 1422 1424 1426 1428 1432 1434 1436 1439 1442 1445 1448 1450 1452 1454 1456 1459 1461 1462 1462 1461 1461 1460 1459 1457 1455 1453 1452 1450 1449 1447 1444 1443 1441 1438 1435 1432 1429 1426 1422 1418
1411 1413 1417 1420 1423 1423 1427 1431 1434 1436 1438 1442 1446 1449 1451 1452 1454 1456 1457 1458 1458 1457 1457 1456 1456 1455 1454 1451 1449 1447 1445 1443 1441 1439 1437 1435 1433 1430 1426 1423 1419 1415 1412
Wind_Speed
23 16 18 24 24 20 25 28 31 29 28 31 32 35 37 33 28 23 23 24 25 29 24 23 24 24 25 24 22 19 18 19 17 19 13 13 13 13 13 13 15 13 14
28 24 21 27 28 35 36 35 33 33 35 37 36 33 28 27 26 24 26 27 27 25 28 28 27 26 24 23 23 23 23 22 23 22 23 16 19 20 18 16 14 14 16
35 31 28 31 37 39 34 29 27 28 29 31 29 26 24 23 27 30 31 32 32 28 28 26 27 26 24 25 26 26 25 25 25 25 20 10 11 14 16 16 14 17 18
37 35 32 32 38 35 30 27 26 27 25 26 28 30 31 35 33 34 34 33 29 28 29 28 26 28 28 27 29 29 25 24 27 26 24 25 13 10 8 14 14 17 19
40 41 38 34 38 32 30 29 30 28 26 28 27 30 31 29 28 29 31 32 30 27 29 30 27 29 29 26 28 30 30 27 27 33 31 27 26 17 14 13 11 12 16
42 42 38 38 38 34 31 31 32 32 29 29 30 31 37 33 33 31 35 34 33 30 29 30 29 28 30 30 33 30 33 34 32 31 28 29 26 16 12 12 18 19 18
45 44 44 44 40 38 36 35 35 39 37 35 32 36 38 37 33 36 38 37 35 34 32 28 29 27 28 34 33 32 36 34 33 30 30 25 21 17 17 19 22 26 28
44 45 49 49 47 40 40 42 41 40 43 40 39 38 38 38 36 34 35 35 35 33 25 22 24 23 25 30 34 35 38 33 27 33 31 26 23 21 21 23 24 25 27
46 45 46 50 48 44 42 42 44 44 42 42 42 41 41 41 37 37 37 35 32 29 27 24 20 19 23 32 35 35 30 26 29 31 28 24 26 23 24 20 22 21 28
25 42 43 48 49 48 43 43 44 45 44 43 45 43 41 39 40 36 36 38 33 30 29 20 22 20 23 27 33 29 31 30 29 30 23 20 24 21 23 20 18 23 26
7 10 12 48 47 50 48 46 46 50 47 42 43 44 44 42 37 38 36 35 30 30 27 22 18 21 22 21 22 29 28 28 26 21 21 24 22 22 19 16 21 24 25
16 7 7 2 37 44 47 47 46 45 37 39 41 43 42 43 36 30 36 25 31 23 22 18 19 19 19 20 23 25 25 22 20 19 22 21 19 17 17 17 21 23 25
19 15 10 8 8 18 34 39 45 49 29 27 33 35 38 35 33 32 29 33 28 22 19 18 16 16 19 20 19 18 18 20 18 18 18 15 12 14 15 20 23 24 26
12 17 16 13 10 11 17 32 34 39 28 31 31 30 33 30 28 25 24 19 21 21 19 17 14 16 16 16 17 17 18 15 17 14 11 10 13 17 22 24 26 28 30
16 11 24 22 21 19 17 23 30 31 30 29 28 27 29 29 25 22 20 19 19 17 17 17 18 18 16 15 15 16 16 14 12 9 12 14 16 18 18 19 20 23 26
18 5 5 28 27 25 23 23 23 23 21 22 23 23 23 22 19 17 17 17 18 17 17 18 16 16 15 15 15 14 13 13 14 16 17 20 23 26 29 30 30 28 30
17 10 12 24 27 28 27 25 26 24 22 19 15 16 16 17 16 15 16 16 17 17 16 15 15 13 12 11 12 10 9 10 12 15 19 21 22 24 27 30 32 34 35
14 12 16 24 27 27 26 23 20 18 18 18 18 17 16 16 15 16 17 18 16 16 15 14 11 13 11 10 10 11 13 14 16 17 20 22 24 27 31 34 34 35 37
17 17 18 22 24 22 18 16 14 16 17 19 19 18 17 16 18 18 18 18 18 16 12 12 13 10 11 12 13 15 16 17 19 20 21 22 22 24 26 29 32 35 36
20 21 19 19 19 18 17 16 17 20 21 19 18 17 18 19 20 19 20 19 14 15 15 15 15 14 15 16 17 19 20 20 20 18 18 18 20 21 23 26 30 34 34
20 20 19 19 18 16 16 18 21 20 19 19 19 21 21 21 20 19 17 18 19 18 19 19 18 17 17 16 18 20 21 19 18 18 19 20 20 22 23 23 25 27 32
19 20 22 19 16 16 16 19 20 20 20 19 19 20 21 19 18 19 19 18 19 21 21 19 17 15 15 17 19 20 20 20 20 21 22 22 22 22 22 23 25 27 29
21 21 23 24 22 22 21 22 20 16 16 18 22 20 18 18 19 20 21 21 19 18 17 15 13 14 15 18 18 18 19 21 21 23 22 22 22 21 22 24 26 27 25
22 21 21 22 19 17 17 18 18 17 18 21 21 22 21 18 18 18 17 16 16 14 14 14 15 16 18 18 20 21 22 22 22 22 21 21 20 21 23 26 27 27 27
20 20 21 20 20 19 20 21 21 23 23 23 20 19 18 17 15 14 13 11 11 12 13 14 14 17 19 21 22 21 22 22 22 23 21 20 20 23 26 28 29 29 29
21 25 25 24 25 27 26 22 19 21 23 21 18 15 14 12 10 9 9 9 11 11 11 12 14 17 18 20 20 19 20 20 20 20 19 19 19 23 26 29 31 32 32
Wind_Direction
151 139 158 168 165 164 166 161 153 149 161 166 170 172 174 176 192 207 215 215 218 219 223 223 226 225 233 234 232 225 219 220 212 212 222 239 262 265 268 266 284 276 280
160 154 157 166 166 154 149 150 151 153 154 158 163 174 181 194 202 208 221 225 226 225 226 231 229 230 230 232 230 224 222 219 225 219 225 241 243 247 249 252 271 275 263
169 170 166 170 168 165 163 164 169 169 174 181 184 193 198 200 205 212 217 221 230 234 230 228 233 238 236 241 236 231 230 233 232 231 226 219 224 220 231 248 261 266 260
169 180 178 179 177 176 177 181 181 185 189 190 193 197 202 212 214 213 215 222 226 229 228 233 231 233 235 240 237 238 240 242 233 232 230 238 231 220 218 243 259 233 255
179 184 193 193 193 190 191 192 196 198 194 195 198 200 206 212 216 216 221 224 229 237 234 237 231 233 237 240 236 240 248 242 231 230 232 231 235 238 247 259 259 229 249
189 191 201 201 201 204 202 202 206 210 207 203 207 213 212 216 214 219 222 226 232 236 237 237 234 234 236 240 240 244 245 244 229 232 239 243 227 235 241 257 272 270 258
189 192 192 197 208 208 207 205 208 214 216 215 213 212 221 215 217 217 224 226 230 234 238 239 236 235 248 244 250 244 238 237 234 226 229 230 246 255 258 263 259 270 271
193 198 201 204 208 210 212 210 211 210 212 220 223 223 224 220 220 217 224 231 235 245 247 236 239 253 252 241 244 242 243 233 230 234 233 233 244 255 273 266 259 270 272
201 198 204 206 210 212 212 211 217 220 216 220 225 229 225 226 231 218 221 229 240 247 253 244 239 246 253 246 245 244 242 243 237 242 234 245 248 274 282 263 260 266 272
197 216 205 210 216 217 219 216 216 220 223 222 225 233 234 232 232 234 226 231 236 240 242 230 235 255 251 245 244 246 251 245 250 240 245 247 264 278 279 263 257 263 271
198 233 200 218 223 220 218 219 219 221 224 226 226 228 237 239 240 232 229 232 244 241 233 230 251 255 249 254 255 252 250 247 241 248 264 272 268 274 264 252 258 264 271
180 188 241 156 217 214 220 218 222 213 229 237 235 230 233 237 243 246 235 239 249 230 225 245 255 249 249 250 247 247 247 238 250 260 271 269 271 264 259 263 271 276 278
180 184 207 243 136 198 218 219 222 217 252 220 232 233 236 231 237 239 236 243 241 245 249 241 238 235 243 240 237 235 236 248 258 255 266 269 267 268 276 276 275 276 276
177 203 201 208 202 139 155 208 210 214 218 217 228 229 236 234 238 243 240 246 241 235 231 232 231 227 214 213 222 230 239 240 250 255 262 270 277 283 281 280 283 286 285
212 254 207 192 192 195 196 182 196 208 217 229 235 231 228 226 237 225 236 235 233 226 225 219 206 199 205 210 222 226 229 237 244 249 258 261 263 264 271 280 285 286 289
209 142 177 185 187 197 207 211 212 213 213 223 223 213 212 213 219 223 226 220 215 206 204 196 198 199 197 204 216 229 241 245 251 248 247 254 259 261 263 267 273 278 284
191 191 161 188 190 194 203 205 213 219 221 222 214 209 204 209 210 219 205 207 197 183 180 185 190 191 199 220 227 224 230 243 252 257 260 265 268 272 275 276 277 277 276
190 189 186 189 191 194 197 204 205 213 230 225 223 216 204 201 209 197 186 176 175 179 187 186 190 192 193 202 220 233 246 261 271 274 276 279 281 283 284 285 287 288 288
188 188 192 195 195 198 201 199 213 241 212 204 201 203 205 206 189 177 177 177 177 179 180 170 189 199 199 215 234 248 258 265 274 279 281 284 286 288 292 296 298 299 301
192 195 202 206 210 208 212 219 236 196 197 202 202 197 185 175 171 176 180 171 172 166 174 187 194 207 224 232 243 255 267 276 282 286 291 293 300 303 304 306 307 307 310
190 195 208 212 213 212 216 205 187 185 187 187 185 175 170 174 174 170 174 165 174 181 187 205 216 228 236 243 256 267 275 286 295 301 303 307 308 308 311 311 313 311 309
185 195 192 192 186 186 187 174 174 173 182 180 171 167 164 168 173 172 173 184 190 196 206 213 229 238 247 255 262 271 286 300 306 308 309 311 311 311 312 311 316 316 311
184 185 184 176 170 173 186 183 185 193 178 168 157 161 170 175 180 184 189 197 208 214 220 227 231 241 250 263 272 282 294 299 302 303 307 308 309 308 307 313 318 319 318
171 175 177 172 169 180 193 204 189 177 170 166 170 172 175 178 183 194 199 208 216 221 224 231 237 244 256 266 276 284 289 291 295 297 302 306 310 310 312 314 320 324 326
172 176 163 160 163 176 171 170 169 170 170 174 173 177 181 184 188 196 199 214 234 246 252 252 250 252 259 269 278 283 289 297 304 305 308 311 314 314 315 318 321 323 324
164 158 160 157 147 152 149 152 165 178 177 170 165 168 179 180 189 208 225 235 241 247 257 266 267 268 272 278 282 287 292 297 302 304 307 309 309 306 311 316 318 321 324